Location: Ebendorf
(52.1827°N, 11.5706°E)
Time: 09:34:13
(UTC+00:00)

NPP - Pass Details

Date: 15 May 2021
Orbit: 826 x 827 km, 98.7° (Epoch: 20 June)

Event Time Altitude Azimuth Distance (km) Brightness Sun altitude
Rises 00:57:07 0° 17° (NNE) 3,381 8.6 -15.2°
Reaches altitude 10° 00:59:30 10° 20° (NNE) 2,443 7.5 -15.0°
Maximum altitude 01:04:53 67° 103° (ESE) 900 3.9 -14.7°
Enters shadow 01:08:57 18° 183° (S) 1,933 5.0 -14.4°
